FW4080 Weather Reports


time (UTC)temp
C
wind
direction
speed
KPH
gust
KPH
rain 1hr
cm
rain 24hr
cm
rain mn
cm
humidity
%
barometer
mb
20260503054553 0 228 0.0 0.0 0.00 0.00 0.00 89 1018.2
20260503053039 0 228 0.0 0.0 0.00 0.00 0.00 89 1018.3
20260503051546 0 228 0.0 0.0 0.00 0.00 0.00 88 1018.2
20260503050034 0 228 0.0 0.0 0.00 0.00 0.00 87 1018.2
20260503044531 1 228 0.0 0.0 0.00 0.00 0.00 86 1018.1
20260503043028 1 228 0.0 0.0 0.00 0.00 0.00 86 1018.1
20260503041531 1 229 0.0 0.0 0.00 0.00 0.00 84 1018.0
20260503040023 2 228 0.0 0.0 0.00 0.00 0.00 84 1018.2
20260503034523 2 228 0.0 0.0 0.00 0.00 0.00 84 1018.2
20260503033023 2 229 0.0 0.0 0.00 0.00 0.00 84 1018.2
20260503031527 1 228 0.0 0.0 0.00 0.00 0.00 82 1018.3
20260503030027 2 228 0.0 0.0 0.00 0.00 0.00 80 1018.4
20260503024521 2 228 0.0 0.0 0.00 0.00 0.00 79 1018.5
20260503023020 2 228 0.0 0.0 0.00 0.00 0.00 75 1018.5
20260503021518 3 228 0.0 0.0 0.00 0.00 0.00 73 1018.5
20260503020018 3 228 0.0 0.0 0.00 0.00 0.00 68 1018.4
20260503014517 5 228 0.0 0.0 0.00 0.00 0.00 65 1018.3
20260503013028 5 229 0.0 1.6 0.00 0.00 0.00 64 1018.2
20260503011515 5 338 0.0 1.6 0.00 0.00 0.00 62 1018.1
20260503010015 6 53 0.0 1.6 0.00 0.00 0.00 60 1018.0
20260503004515 6 214 0.0 1.6 0.00 0.05 0.00 59 1017.9
20260503003021 6 283 0.0 3.2 0.00 0.05 0.00 57 1017.9
20260503001513 6 271 0.0 1.6 0.00 0.05 0.00 56 1017.8
20260503000012 7 256 0.0 8.0 0.00 0.05 0.00 56 1017.7
20260502234518 7 68 0.0 3.2 0.00 0.05 0.00 55 1017.6
20260502233012 7 240 0.0 1.6 0.00 0.05 0.00 55 1017.6
20260502231511 7 320 0.0 4.8 0.00 0.05 0.00 54 1017.5
20260502230011 7 352 0.0 3.2 0.00 0.05 0.00 53 1017.6
20260502224510 7 89 0.0 4.8 0.00 0.05 0.00 53 1017.6
20260502223009 7 278 0.0 6.4 0.00 0.05 0.00 50 1017.5
20260502221510 8 216 0.0 8.0 0.00 0.05 0.00 49 1017.6
20260502220012 8 50 0.0 6.4 0.00 0.05 0.00 50 1017.4
20260502214506 8 356 0.0 4.8 0.00 0.05 0.00 50 1017.4
20260502213009 8 307 0.0 4.8 0.00 0.05 0.00 49 1017.4
20260502211505 8 156 0.0 4.8 0.00 0.05 0.00 52 1017.1
20260502210005 8 287 0.0 6.4 0.00 0.05 0.00 50 1017.2
20260502204505 8 104 1.6 12.9 0.00 0.05 0.00 47 1017.2
20260502203003 8 225 0.0 9.7 0.00 0.05 0.00 49 1017.3
20260502201510 9 27 0.0 9.7 0.00 0.05 0.00 48 1017.3
20260502200003 9 31 3.2 9.7 0.00 0.05 0.00 45 1017.4
20260502194502 8 15 0.0 9.7 0.00 0.05 0.00 49 1017.5
20260502193001 9 328 0.0 4.8 0.00 0.05 0.00 50 1017.6
20260502191602 9 352 0.0 8.0 0.00 0.05 0.00 50 1017.6
20260502190100 8 359 0.0 8.0 0.00 0.05 0.00 50 1017.7
20260502184604 8 134 1.6 8.0 0.00 0.05 0.00 52 1017.8
20260502183059 8 98 0.0 8.0 0.00 0.05 0.00 53 1017.7
20260502181557 9 6 0.0 6.4 0.00 0.05 0.00 51 1017.7
20260502163045 8 11 0.0 3.2 0.00 0.05 0.00 57 1018.2
20260502161543 9 82 0.0 6.4 0.00 0.05 0.00 53 1018.3
20260502151545 8 229 1.6 8.0 0.00 0.10 0.00 60 1018.4
20260502123003 3 300 0.0 4.8 0.00 0.20 0.00 90 1017.9
20260502121559 2 212 0.0 3.2 0.00 0.20 0.00 96 1017.7
20260502114601 0 318 0.0 1.6 0.00 0.20 0.00 97 1017.6
20260502113113 0 358 0.0 0.0 0.00 0.20 0.00 97 1017.7
20260502111601 0 229 0.0 0.0 0.00 0.20 0.00 97 1017.5
20260502110056 -1 229 0.0 0.0 0.00 0.20 0.00 97 1017.4
20260502104607 -1 229 0.0 0.0 0.00 0.20 0.00 97 1017.4
20260502103053 0 229 0.0 0.0 0.00 0.20 0.00 97 1017.4
20260502101607 0 228 0.0 0.0 0.00 0.20 0.00 97 1017.4
20260502070054 0 305 0.0 0.0 0.00 0.20 0.00 97 1017.3
20260502064534 0 304 0.0 0.0 0.00 0.20 0.00 97 1017.4